User: anonymous   Login
Location: Cussy
(47.0410°N, 4.6412°E)
Time: 23:05:32
(UTC+00:00)
Language:

ARGOS - Orbit

View from above orbital plane
View from above orbital plane
View from above satellite
View from above satellite

Ground track
Ground track

The orbit data is extracted from the following two-line orbital elements,

1 25634U 99008A   21059.56609407 -.00000004  00000-0  17683-4 0  9994
2 25634  98.4325  92.5372 0009107 253.3661 106.6517 14.19389453139819
Epoch (UTC): 28 February 2021 13:35:10
Eccentricity: 0.0009107
inclination: 98.4325°
perigee height: 821 km
apogee height: 834 km
right ascension of ascending node: 92.5372°
argument of perigee: 253.3661°
revolutions per day: 14.19389453
mean anomaly at epoch: 106.6517°
orbit number at epoch: 13981

The dashed part of the orbit path shows where the satellite is in the earth's shadow,  

DLR